Location: Newark
(15.3000°N, 61.3833°W)
Time: 05:41:38
(UTC+00:00)

OTV 5 (USA 277) - Visible Passes

Search period start: 22 October 2019 00:00
Search period end: 01 November 2019 00:00
Orbit: 310 x 324 km, 54.5° (Epoch: 17 October)

Date Brightness Start Highest point End Pass type
(mag) Time Alt. Az. Time Alt. Az. Time Alt. Az.
22 Oct ? 23:12:01 10° SW 23:12:45 17° SW 23:12:45 17° SW visible
23 Oct ? 08:52:20 10° NNE 08:54:05 16° NE 08:55:51 10° E visible
23 Oct ? 23:27:19 10° W 23:27:56 13° W 23:27:56 13° W visible
24 Oct ? 09:06:43 17° NNW 09:08:39 76° ENE 09:11:19 10° SE visible
24 Oct ? 22:07:05 10° SSW 22:09:35 35° ESE 22:12:06 10° NE visible
25 Oct ? 09:21:54 15° W 09:23:04 19° WSW 09:25:06 10° S visible
25 Oct ? 22:21:32 10° SW 22:24:04 36° NW 22:26:36 10° NNE visible
